Find Starlink 30563

NORAD ID: 58042 Int'l Des: 2023-156 Owner: SPXS Country: US Constellation: starlink operational
LEOCIRCULAR

現在のビュー

3D地球を読み込み中...

About Starlink 30563

Starlink 30563 (NORAD 58042) is a starlink constellation satellite (v2 mini) launched Oct 9, 2023 by SPXS of US. It operates in LEO, CIRCULAR orbit with a mass of 730.00 kg.

次回通過

Passes for default location (London). Set your location on the main map for personalized predictions.

高度履歴

Loading altitude history...

軌道要素

1 58042U 23156Q 26262.69109120 -.00001277 00000-0 -26661-4 0 9996
2 58042 53.1587 253.1839 0001115 90.0243 270.0887 15.34395335166070
Epoch: Sep 19, 2026 • Age: 21 hours

現在のステータス

高度 482.0 km
遠地点 / 近地点 N/A
速度 7.62 km/s
衛星直下点 -53.31°S, 51.39°W
打ち上げ日 Oct 9, 2023
運用期間 2.9 years
タイプ internet

技術仕様

分類 Payload
質量 730.00 kg
乾燥質量 700.00 kg
長さ 0.30 m
スパン 29.00 m
形状 ? Box + pan
製造者 SPXS
バスタイプ Starlink V2M
フェーズステータス In Orbit
所有者/国 SPXS/US

Most Searched